Air Quality Table

TIMESTAMP NO2 SO2 O3 PM10 PM2.5 TEMP HUM AIRPRES WS WD NO
2022-08-10 20:00 8.45 µg/m3 0.32 µg/m3 94.78 µg/m3 N/A N/A 26.6 °C 83.93 % 1,000.29 mbar 1.86 m/s 294 Deg 0.43 µg/m3
2022-08-10 19:00 3.08 µg/m3 0.38 µg/m3 97.45 µg/m3 N/A N/A 27.15 °C 80.45 % 1,000.34 mbar 1.45 m/s 229.39 Deg 0.5 µg/m3
2022-08-10 18:00 2 µg/m3 0.45 µg/m3 96.73 µg/m3 N/A N/A 27.75 °C 76.1 % 1,000.25 mbar 1.9 m/s 122.81 Deg 0.64 µg/m3
2022-08-10 17:00 1.96 µg/m3 0.5 µg/m3 97.97 µg/m3 N/A N/A 28.05 °C 73.68 % 1,000.40 mbar 2.88 m/s 173.9 Deg 0.68 µg/m3
2022-08-10 16:00 1.78 µg/m3 0.51 µg/m3 100.45 µg/m3 N/A N/A 27.94 °C 74.28 % 1,000.29 mbar 3.76 m/s 180.55 Deg 0.56 µg/m3
2022-08-10 15:00 1.85 µg/m3 0.44 µg/m3 105.39 µg/m3 N/A N/A 27.49 °C 74.66 % 1,000.45 mbar 3.67 m/s 131.06 Deg 0.47 µg/m3
2022-08-10 14:00 1.8 µg/m3 0.43 µg/m3 114.38 µg/m3 N/A N/A 27.75 °C 79.62 % 1,001.04 mbar 2.48 m/s 161.21 Deg 0.37 µg/m3
2022-08-10 13:00 2.25 µg/m3 0.41 µg/m3 120.7 µg/m3 N/A N/A 27.02 °C 79.34 % 1,001.26 mbar 2.23 m/s 237.58 Deg 0.36 µg/m3
2022-08-10 12:00 0.96 µg/m3 0.49 µg/m3 109.45 µg/m3 N/A N/A 26.56 °C 83.86 % 1,001.39 mbar 3.35 m/s 141.3 Deg 0.14 µg/m3
2022-08-10 11:00 0.36 µg/m3 0.61 µg/m3 109.69 µg/m3 N/A N/A 27.16 °C 81.56 % 1,001.38 mbar 3.01 m/s 290.52 Deg 0.1 µg/m3
2022-08-10 10:00 1.49 µg/m3 0.6 µg/m3 107.77 µg/m3 N/A N/A 27.25 °C 82.17 % 1,001.34 mbar 2.36 m/s 235.89 Deg 0.39 µg/m3
2022-08-10 09:00 0.63 µg/m3 0.45 µg/m3 108.16 µg/m3 N/A N/A 26.62 °C 86.98 % 1,001.23 mbar 2.19 m/s 263.2 Deg 0.39 µg/m3
2022-08-10 08:00 0.85 µg/m3 0.45 µg/m3 109.03 µg/m3 N/A N/A 26.54 °C 87.83 % 1,001.02 mbar 1.44 m/s 197.9 Deg 0.18 µg/m3
2022-08-10 07:00 0.53 µg/m3 0.39 µg/m3 101.5 µg/m3 N/A N/A 26.06 °C 89.95 % 1,000.78 mbar 0.96 m/s 284.87 Deg 0.1 µg/m3
2022-08-10 06:00 0.58 µg/m3 0.38 µg/m3 98.59 µg/m3 N/A N/A 25.61 °C 91.2 % 1,000.51 mbar 1.06 m/s 240.9 Deg 0.08 µg/m3
2022-08-10 05:00 1.04 µg/m3 0.34 µg/m3 101.98 µg/m3 N/A N/A 25.68 °C 93.35 % 1,000.16 mbar 0.82 m/s 242.51 Deg 0.06 µg/m3
2022-08-10 04:00 1.66 µg/m3 0.45 µg/m3 99.38 µg/m3 N/A N/A 25.78 °C 91.64 % 1,000.11 mbar 0.8 m/s 261.77 Deg 0.08 µg/m3
2022-08-10 03:00 3.81 µg/m3 0.51 µg/m3 98.48 µg/m3 N/A N/A 25.82 °C 90.41 % 1,000.35 mbar 0.56 m/s 229.5 Deg 0.06 µg/m3
2022-08-10 02:00 2.62 µg/m3 0.45 µg/m3 100 µg/m3 N/A N/A 26.01 °C 88.47 % 1,000.60 mbar 0.7 m/s 205.59 Deg 0.06 µg/m3
2022-08-10 01:00 0.74 µg/m3 0.45 µg/m3 100.44 µg/m3 N/A N/A 26.17 °C 87.68 % 1,000.83 mbar 1.07 m/s 128.08 Deg 0.07 µg/m3
2022-08-10 00:00 1.56 µg/m3 0.39 µg/m3 98.13 µg/m3 N/A N/A 26.08 °C 88.83 % 1,001.21 mbar 1.48 m/s 73.32 Deg 0.1 µg/m3
2022-08-09 23:00 0.81 µg/m3 0.45 µg/m3 109.17 µg/m3 N/A N/A 26.29 °C 85.88 % 1,001.27 mbar 1.01 m/s 174.54 Deg 0.11 µg/m3
2022-08-09 22:00 0.77 µg/m3 0.42 µg/m3 104.32 µg/m3 N/A N/A 26.31 °C 86.52 % 1,001.18 mbar 1.31 m/s 176.25 Deg 0.07 µg/m3
2022-08-09 21:00 0.12 µg/m3 0.36 µg/m3 103.57 µg/m3 N/A N/A 26.3 °C 88.47 % 1,001.07 mbar 1.02 m/s 187.52 Deg 0.06 µg/m3
2022-08-09 20:00 0.14 µg/m3 0.38 µg/m3 106.7 µg/m3 N/A N/A 26.56 °C 87.01 % 1,000.78 mbar 1.28 m/s 84.09 Deg 0.07 µg/m3
2022-08-09 19:00 -0.16 µg/m3 0.38 µg/m3 110.32 µg/m3 N/A N/A 27.18 °C 84.86 % 1,000.63 mbar 2.57 m/s 278.38 Deg 0.06 µg/m3
2022-08-09 18:00 -0.15 µg/m3 0.45 µg/m3 103.63 µg/m3 N/A N/A 27.69 °C 82.38 % 1,000.82 mbar 3.34 m/s 246.01 Deg 0.09 µg/m3
2022-08-09 17:00 -0.1 µg/m3 0.47 µg/m3 102.01 µg/m3 N/A N/A 27.89 °C 81.62 % 1,000.44 mbar 3.68 m/s 132.85 Deg 0.09 µg/m3
2022-08-09 16:00 0.15 µg/m3 0.56 µg/m3 93.47 µg/m3 N/A N/A 28.17 °C 79.65 % 1,000.37 mbar 4.16 m/s 151.28 Deg 0.13 µg/m3
2022-08-09 15:00 0.12 µg/m3 0.71 µg/m3 102.07 µg/m3 N/A N/A 28.48 °C 78.26 % 1,000.61 mbar 4.83 m/s 123.67 Deg 0.11 µg/m3
2022-08-09 14:00 0.07 µg/m3 0.51 µg/m3 91.53 µg/m3 N/A N/A 29.09 °C 76.11 % 1,000.94 mbar 4.73 m/s 182.3 Deg 0.13 µg/m3
2022-08-09 13:00 0.67 µg/m3 0.63 µg/m3 94.08 µg/m3 N/A N/A 28.63 °C 77.81 % 1,001.38 mbar 3.54 m/s 186.2 Deg 0.21 µg/m3
2022-08-09 12:00 0.18 µg/m3 0.56 µg/m3 93.78 µg/m3 N/A N/A 28.62 °C 77.06 % 1,001.74 mbar 1.88 m/s 169.34 Deg 0.12 µg/m3
2022-08-09 11:00 0.13 µg/m3 0.54 µg/m3 104.9 µg/m3 N/A N/A 27.9 °C 82.09 % 1,001.79 mbar 2.8 m/s 138.08 Deg 0.12 µg/m3
2022-08-09 10:00 0.35 µg/m3 1.12 µg/m3 139.67 µg/m3 N/A N/A 27.5 °C 83.21 % 1,001.53 mbar 2.96 m/s 152.41 Deg 0.1 µg/m3
2022-08-09 09:00 1.32 µg/m3 1.14 µg/m3 145.08 µg/m3 N/A N/A 27.4 °C 83.37 % 1,001.22 mbar 2.48 m/s 95.25 Deg 0.14 µg/m3
2022-08-09 08:00 1.04 µg/m3 1.47 µg/m3 137.81 µg/m3 N/A N/A 27.52 °C 80.42 % 1,001.03 mbar 1.06 m/s 177.6 Deg 0.12 µg/m3
2022-08-09 07:00 1.55 µg/m3 0.77 µg/m3 133.18 µg/m3 N/A N/A 26.4 °C 90.22 % 1,000.58 mbar 0.67 m/s 87.66 Deg 0.11 µg/m3
2022-08-09 06:00 1.49 µg/m3 0.77 µg/m3 139.04 µg/m3 N/A N/A 25.78 °C 91.8 % 1,000.09 mbar 0.12 m/s 148.38 Deg 0.06 µg/m3
2022-08-09 05:00 1.16 µg/m3 0.82 µg/m3 138.06 µg/m3 N/A N/A 25.99 °C 90.17 % 999.89 mbar 0.49 m/s 261.76 Deg 0.07 µg/m3
2022-08-09 04:00 1.71 µg/m3 0.88 µg/m3 123.82 µg/m3 N/A N/A 26.06 °C 87.76 % 999.86 mbar 0.75 m/s 147.18 Deg 0.06 µg/m3
2022-08-09 03:00 3.23 µg/m3 0.82 µg/m3 122.07 µg/m3 N/A N/A 26.04 °C 87.75 % 999.90 mbar 0.73 m/s 239.82 Deg 0.06 µg/m3
2022-08-09 02:00 1.87 µg/m3 0.67 µg/m3 128.9 µg/m3 N/A N/A 26.08 °C 87.68 % 1,000.07 mbar 0.77 m/s 300.25 Deg 0.07 µg/m3
2022-08-09 01:00 2.16 µg/m3 0.51 µg/m3 119.64 µg/m3 N/A N/A 26.17 °C 88.65 % 1,000.20 mbar 1 m/s 35.86 Deg 0.07 µg/m3
2022-08-09 00:00 3.12 µg/m3 0.49 µg/m3 108.9 µg/m3 N/A N/A 26.24 °C 88.67 % 1,000.68 mbar 1.87 m/s 40.59 Deg 0.07 µg/m3
2022-08-08 23:00 1.52 µg/m3 0.44 µg/m3 120.81 µg/m3 N/A N/A 26.41 °C 90.6 % 1,000.85 mbar 1.69 m/s 38.53 Deg 0.07 µg/m3
2022-08-08 22:00 2.47 µg/m3 0.62 µg/m3 124.65 µg/m3 N/A N/A 26.74 °C 87.31 % 1,000.70 mbar 1.08 m/s 98.82 Deg 0.07 µg/m3
2022-08-08 21:00 1.33 µg/m3 0.74 µg/m3 110.03 µg/m3 N/A N/A 26.99 °C 83.4 % 1,000.67 mbar 1.47 m/s 168.24 Deg 0.06 µg/m3
2022-08-08 20:00 0.75 µg/m3 1.09 µg/m3 127.33 µg/m3 N/A N/A 27.69 °C 76.3 % 1,000.05 mbar 0.93 m/s 252.09 Deg 0.06 µg/m3
2022-08-08 19:00 0.75 µg/m3 1.01 µg/m3 127.33 µg/m3 N/A N/A 27.92 °C 79.48 % 999.54 mbar 1.95 m/s 265.92 Deg 0.08 µg/m3
2022-08-08 18:00 0.78 µg/m3 1.27 µg/m3 132.08 µg/m3 N/A N/A 28.82 °C 75.67 % 999.27 mbar 2.74 m/s 301.46 Deg 0.11 µg/m3
2022-08-08 17:00 1.67 µg/m3 1.71 µg/m3 141 µg/m3 N/A N/A 29.51 °C 69.08 % 999.16 mbar 2.6 m/s 195.73 Deg 0.16 µg/m3
2022-08-08 16:00 1.98 µg/m3 1.83 µg/m3 139.2 µg/m3 N/A N/A 30.29 °C 63.81 % 999.16 mbar 2.76 m/s 257.64 Deg 0.2 µg/m3
2022-08-08 15:00 1.61 µg/m3 1.84 µg/m3 139.15 µg/m3 N/A N/A 30.9 °C 59.19 % 999.01 mbar 3.32 m/s 201.65 Deg 0.17 µg/m3
2022-08-08 14:00 2.66 µg/m3 2.41 µg/m3 138.57 µg/m3 N/A N/A 30.28 °C 67.37 % 999.38 mbar 5.28 m/s 241.82 Deg 0.26 µg/m3
2022-08-08 13:00 1.83 µg/m3 2.29 µg/m3 139.32 µg/m3 N/A N/A 30.4 °C 62.91 % 999.35 mbar 5.15 m/s 195.61 Deg 0.17 µg/m3
2022-08-08 12:00 1.74 µg/m3 2.3 µg/m3 132.19 µg/m3 N/A N/A 30.22 °C 61.4 % 999.52 mbar 5.47 m/s 235.25 Deg 0.17 µg/m3
2022-08-08 11:00 1.72 µg/m3 2.05 µg/m3 121.81 µg/m3 N/A N/A 30.28 °C 59.64 % 999.50 mbar 5.51 m/s 144.59 Deg 0.25 µg/m3
2022-08-08 10:00 4.09 µg/m3 2.3 µg/m3 118.19 µg/m3 N/A N/A 30.04 °C 59.6 % 999.47 mbar 4.9 m/s 236.77 Deg 0.29 µg/m3
2022-08-08 09:00 0 µg/m3 1.04 µg/m3 0 µg/m3 N/A N/A 30.05 °C 57.56 % 999.18 mbar 3.86 m/s 209.59 Deg 0 µg/m3
2022-08-08 08:00 0 µg/m3 0 µg/m3 0 µg/m3 N/A N/A 27.87 °C 76.39 % 998.78 mbar 2.79 m/s 149.48 Deg 0 µg/m3
2022-08-08 07:00 6.25 µg/m3 0.19 µg/m3 62.39 µg/m3 N/A N/A 25.91 °C 94.54 % 998.23 mbar 1.55 m/s 120.58 Deg 0.55 µg/m3
2022-08-08 06:00 2.26 µg/m3 0.16 µg/m3 65.31 µg/m3 N/A N/A 25.15 °C 97.65 % 997.86 mbar 1.84 m/s 148.11 Deg 0.11 µg/m3
2022-08-08 05:00 0.87 µg/m3 0.16 µg/m3 75.97 µg/m3 N/A N/A 25.56 °C 98.33 % 997.34 mbar 1.13 m/s 130.52 Deg 0.07 µg/m3
2022-08-08 04:00 1.63 µg/m3 0.17 µg/m3 70.5 µg/m3 N/A N/A 25.73 °C 97.81 % 997.16 mbar 2.08 m/s 198.75 Deg 0.08 µg/m3
2022-08-08 03:00 3.65 µg/m3 0.16 µg/m3 72.69 µg/m3 N/A N/A 25.88 °C 97.82 % 997.33 mbar 2.08 m/s 193.93 Deg 0.07 µg/m3
2022-08-08 02:00 1.21 µg/m3 0.19 µg/m3 77.44 µg/m3 N/A N/A 25.85 °C 97.16 % 997.41 mbar 1.27 m/s 224.14 Deg 0.06 µg/m3
2022-08-08 01:00 0.87 µg/m3 0.16 µg/m3 79.26 µg/m3 N/A N/A 26.04 °C 96.22 % 997.74 mbar 1.13 m/s 252.78 Deg 0.06 µg/m3
2022-08-08 00:00 1.59 µg/m3 0.16 µg/m3 76.21 µg/m3 N/A N/A 26.12 °C 95.34 % 998.08 mbar 2.02 m/s 245.08 Deg 0.07 µg/m3
2022-08-07 23:00 1.42 µg/m3 0.13 µg/m3 82.46 µg/m3 N/A N/A 26.17 °C 94.55 % 998.11 mbar 2.13 m/s 257.95 Deg 0.07 µg/m3
2022-08-07 22:00 0.86 µg/m3 0.15 µg/m3 81 µg/m3 N/A N/A 26.27 °C 93.19 % 998.19 mbar 2.24 m/s 270.76 Deg 0.09 µg/m3
2022-08-07 21:00 7.23 µg/m3 0.18 µg/m3 78.87 µg/m3 N/A N/A 26.35 °C 91.65 % 998.07 mbar 2.3 m/s 291.49 Deg 0.09 µg/m3
2022-08-07 20:00 4.45 µg/m3 0.15 µg/m3 88.68 µg/m3 N/A N/A 26.47 °C 90.46 % 997.65 mbar 2.54 m/s 307.61 Deg 0.08 µg/m3
2022-08-07 19:00 1.84 µg/m3 0.19 µg/m3 97.07 µg/m3 N/A N/A 26.81 °C 89.98 % 997.29 mbar 3.71 m/s 314.53 Deg 0.1 µg/m3
2022-08-07 18:00 3.28 µg/m3 0.4 µg/m3 107.54 µg/m3 N/A N/A 27.31 °C 86.58 % 997.10 mbar 4.16 m/s 300.22 Deg 0.29 µg/m3
2022-08-07 17:00 2.45 µg/m3 0.77 µg/m3 119.46 µg/m3 N/A N/A 27.85 °C 78 % 997.26 mbar 4.6 m/s 220.09 Deg 0.23 µg/m3
2022-08-07 16:00 2.33 µg/m3 1.22 µg/m3 131.16 µg/m3 N/A N/A 28.51 °C 66.08 % 997.39 mbar 4.03 m/s 233.14 Deg 0.25 µg/m3
2022-08-07 15:00 2.76 µg/m3 1.27 µg/m3 138.62 µg/m3 N/A N/A 28.22 °C 70.15 % 997.50 mbar 4.07 m/s 189.32 Deg 0.31 µg/m3
2022-08-07 14:00 1.57 µg/m3 1.11 µg/m3 132.23 µg/m3 N/A N/A 28.79 °C 67.07 % 997.82 mbar 3.3 m/s 239.9 Deg 0.17 µg/m3
2022-08-07 13:00 1.49 µg/m3 0.95 µg/m3 118.91 µg/m3 N/A N/A 28.49 °C 66.68 % 998.28 mbar 3.12 m/s 275.59 Deg 0.15 µg/m3
2022-08-07 12:00 1.93 µg/m3 1.03 µg/m3 125.66 µg/m3 N/A N/A 28.56 °C 66.09 % 998.63 mbar 3.11 m/s 189.26 Deg 0.21 µg/m3
2022-08-07 11:00 3.19 µg/m3 1.04 µg/m3 120.83 µg/m3 N/A N/A 28 °C 70.14 % 998.84 mbar 3.71 m/s 233.24 Deg 0.39 µg/m3
2022-08-07 10:00 3.97 µg/m3 1.19 µg/m3 111.33 µg/m3 N/A N/A 28.03 °C 72.61 % 998.95 mbar 3.39 m/s 209.57 Deg 0.55 µg/m3
2022-08-07 09:00 2.48 µg/m3 1.92 µg/m3 111.52 µg/m3 N/A N/A 28.36 °C 67.01 % 998.53 mbar 2.44 m/s 284.16 Deg 0.31 µg/m3
2022-08-07 08:00 3.01 µg/m3 1.66 µg/m3 100.79 µg/m3 N/A N/A 27.4 °C 75.77 % 998.14 mbar 3.69 m/s 179.88 Deg 0.34 µg/m3
2022-08-07 07:00 7.42 µg/m3 1.18 µg/m3 88.85 µg/m3 N/A N/A 26.51 °C 85.58 % 997.81 mbar 4.19 m/s 15.95 Deg 0.51 µg/m3
2022-08-07 06:00 4.53 µg/m3 0.69 µg/m3 85.41 µg/m3 N/A N/A 25.92 °C 87.54 % 997.34 mbar 4.64 m/s 25.33 Deg 0.15 µg/m3
2022-08-07 05:00 3.96 µg/m3 0.15 µg/m3 91.47 µg/m3 N/A N/A 25.95 °C 92.31 % 997.04 mbar 3.82 m/s 13.19 Deg 0.1 µg/m3
2022-08-07 04:00 6.11 µg/m3 0.35 µg/m3 90.95 µg/m3 N/A N/A 26.04 °C 94.68 % 997.12 mbar 3.22 m/s 177.22 Deg 0.09 µg/m3
2022-08-07 03:00 5.96 µg/m3 0.77 µg/m3 98.89 µg/m3 N/A N/A 26.25 °C 88.44 % 997.50 mbar 2.37 m/s 339.73 Deg 0.08 µg/m3
2022-08-07 02:00 7.21 µg/m3 1.04 µg/m3 95.63 µg/m3 N/A N/A 26.77 °C 80.83 % 997.76 mbar 4.05 m/s 319.28 Deg 0.1 µg/m3
2022-08-07 01:00 2.52 µg/m3 0.73 µg/m3 101.68 µg/m3 N/A N/A 26.88 °C 81.17 % 998.28 mbar 4.08 m/s 282.39 Deg 0.09 µg/m3
2022-08-07 00:00 0.03 µg/m3 0.65 µg/m3 95.82 µg/m3 N/A N/A 26.8 °C 84 % 998.95 mbar 4.58 m/s 262.07 Deg 0.07 µg/m3
2022-08-06 23:00 1.01 µg/m3 0.57 µg/m3 95.21 µg/m3 N/A N/A 26.64 °C 88.09 % 999.06 mbar 5.2 m/s 263.88 Deg 0.08 µg/m3
2022-08-06 22:00 0.63 µg/m3 0.55 µg/m3 91.45 µg/m3 N/A N/A 26.7 °C 87.16 % 999.21 mbar 5.11 m/s 275.19 Deg 0.09 µg/m3
2022-08-06 21:00 -0.23 µg/m3 0.41 µg/m3 84.37 µg/m3 N/A N/A 26.91 °C 85.05 % 999.32 mbar 4.08 m/s 283.63 Deg 0.09 µg/m3
2022-08-06 20:00 -0.09 µg/m3 0.3 µg/m3 85.05 µg/m3 N/A N/A 27.12 °C 83.64 % 999.05 mbar 4.39 m/s 282.83 Deg 0.09 µg/m3
2022-08-06 19:00 -0.2 µg/m3 0.2 µg/m3 86.29 µg/m3 N/A N/A 27.64 °C 82.82 % 998.93 mbar 4.09 m/s 272.51 Deg 0.08 µg/m3
2022-08-06 18:00 -0.12 µg/m3 0.17 µg/m3 86.13 µg/m3 N/A N/A 28.11 °C 80.85 % 998.74 mbar 4.57 m/s 243.64 Deg 0.11 µg/m3
2022-08-06 17:00 0.43 µg/m3 0.23 µg/m3 92 µg/m3 N/A N/A 28.28 °C 82.96 % 998.80 mbar 4.97 m/s 179 Deg 0.15 µg/m3
2022-08-06 16:00 0.98 µg/m3 0.51 µg/m3 91.18 µg/m3 N/A N/A 28.46 °C 77.5 % 999.20 mbar 4.87 m/s 174.99 Deg 0.24 µg/m3
2022-08-06 15:00 0.73 µg/m3 0.73 µg/m3 106.75 µg/m3 N/A N/A 28.4 °C 74.5 % 999.65 mbar 5.23 m/s 188.23 Deg 0.21 µg/m3
2022-08-06 14:00 0.65 µg/m3 0.72 µg/m3 117.08 µg/m3 N/A N/A 28.37 °C 75.45 % 1,000.07 mbar 4.82 m/s 193.9 Deg 0.14 µg/m3
2022-08-06 13:00 1.17 µg/m3 0.86 µg/m3 124.16 µg/m3 N/A N/A 28.23 °C 75.3 % 1,000.29 mbar 4.57 m/s 160.15 Deg 0.21 µg/m3
2022-08-06 12:00 2.32 µg/m3 0.98 µg/m3 121.02 µg/m3 N/A N/A 28.06 °C 75.42 % 1,000.44 mbar 4.54 m/s 178.21 Deg 0.37 µg/m3
2022-08-06 11:00 4.83 µg/m3 1.13 µg/m3 106.93 µg/m3 N/A N/A 27.98 °C 78.51 % 1,000.55 mbar 4.52 m/s 183.3 Deg 0.88 µg/m3
2022-08-06 10:00 3.85 µg/m3 0.9 µg/m3 105.63 µg/m3 N/A N/A 27.4 °C 81.05 % 1,000.45 mbar 4.3 m/s 220.62 Deg 0.71 µg/m3
2022-08-06 09:00 5.11 µg/m3 1.01 µg/m3 99.58 µg/m3 N/A N/A 27.19 °C 81.71 % 1,000.26 mbar 3.87 m/s 259.02 Deg 0.86 µg/m3
2022-08-06 08:00 4.46 µg/m3 0.63 µg/m3 97.69 µg/m3 N/A N/A 26.7 °C 85.47 % 1,000.17 mbar 3.81 m/s 249.11 Deg 0.62 µg/m3
2022-08-06 07:00 5.43 µg/m3 0.53 µg/m3 94.1 µg/m3 N/A N/A 26.12 °C 88.28 % 1,000.21 mbar 3.44 m/s 282.03 Deg 0.48 µg/m3
2022-08-06 06:00 0.08 µg/m3 0.15 µg/m3 100.2 µg/m3 N/A N/A 25.69 °C 94.58 % 1,000.05 mbar 2.96 m/s 292.56 Deg 0.09 µg/m3
2022-08-06 05:00 0.03 µg/m3 0.34 µg/m3 104.54 µg/m3 N/A N/A 26 °C 90.77 % 999.79 mbar 2.92 m/s 292.18 Deg 0.08 µg/m3
2022-08-06 04:00 0.32 µg/m3 0.33 µg/m3 100.88 µg/m3 N/A N/A 26.01 °C 89.54 % 999.87 mbar 2.58 m/s 297.17 Deg 0.06 µg/m3
2022-08-06 03:00 2.13 µg/m3 0.32 µg/m3 101.54 µg/m3 N/A N/A 26.09 °C 88.74 % 1,000.02 mbar 2.63 m/s 293.5 Deg 0.07 µg/m3
2022-08-06 02:00 0.38 µg/m3 0.32 µg/m3 101.9 µg/m3 N/A N/A 26.14 °C 88.8 % 1,000.09 mbar 2.67 m/s 282.84 Deg 0.08 µg/m3
2022-08-06 01:00 -0.08 µg/m3 0.34 µg/m3 95.51 µg/m3 N/A N/A 26.24 °C 89.99 % 1,000.28 mbar 3.44 m/s 260.43 Deg 0.07 µg/m3
2022-08-06 00:00 -0.08 µg/m3 0.39 µg/m3 90.71 µg/m3 N/A N/A 26.07 °C 89.09 % 1,000.59 mbar 2.72 m/s 279.17 Deg 0.08 µg/m3
2022-08-05 23:00 0.11 µg/m3 0.37 µg/m3 92.83 µg/m3 N/A N/A 26.19 °C 88.13 % 1,000.66 mbar 2.43 m/s 283.98 Deg 0.09 µg/m3
2022-08-05 22:00 -0 µg/m3 0.38 µg/m3 101.53 µg/m3 N/A N/A 26.41 °C 87.15 % 1,000.87 mbar 2.54 m/s 284.78 Deg 0.08 µg/m3
2022-08-05 21:00 0.06 µg/m3 0.44 µg/m3 103.59 µg/m3 N/A N/A 26.56 °C 84.97 % 1,000.89 mbar 2.11 m/s 303.02 Deg 0.08 µg/m3
2022-08-05 20:00 0.08 µg/m3 0.48 µg/m3 102.69 µg/m3 N/A N/A 26.85 °C 81.31 % 1,000.45 mbar 2.26 m/s 275.54 Deg 0.08 µg/m3
2022-08-05 19:00 0.19 µg/m3 0.63 µg/m3 107.4 µg/m3 N/A N/A 27.72 °C 74.47 % 1,000.22 mbar 3.48 m/s 170.2 Deg 0.09 µg/m3
2022-08-05 18:00 0.33 µg/m3 0.72 µg/m3 113.59 µg/m3 N/A N/A 28.23 °C 69.85 % 1,000.35 mbar 4.39 m/s 164.58 Deg 0.11 µg/m3
2022-08-05 17:00 1.26 µg/m3 1.11 µg/m3 130.61 µg/m3 N/A N/A 28.41 °C 67.4 % 1,000.63 mbar 4.6 m/s 152.25 Deg 0.17 µg/m3
2022-08-05 16:00 2.62 µg/m3 1.32 µg/m3 125.12 µg/m3 N/A N/A 28.56 °C 63.51 % 1,000.94 mbar 4.5 m/s 234.83 Deg 0.35 µg/m3
2022-08-05 15:00 0.96 µg/m3 0.96 µg/m3 126.43 µg/m3 N/A N/A 28.3 °C 68.29 % 1,001.34 mbar 4.48 m/s 204.79 Deg 0.19 µg/m3
2022-08-05 14:00 1.01 µg/m3 0.99 µg/m3 123.45 µg/m3 N/A N/A 28.03 °C 72.23 % 1,001.65 mbar 3.97 m/s 153.41 Deg 0.19 µg/m3
2022-08-05 13:00 0.65 µg/m3 0.89 µg/m3 122.85 µg/m3 N/A N/A 27.96 °C 73.59 % 1,001.91 mbar 4.04 m/s 239.48 Deg 0.15 µg/m3
2022-08-05 12:00 2.68 µg/m3 0.85 µg/m3 107.43 µg/m3 N/A N/A 27.71 °C 79.29 % 1,002.08 mbar 3.97 m/s 244.57 Deg 0.61 µg/m3
2022-08-05 11:00 10.58 µg/m3 0.57 µg/m3 82.75 µg/m3 N/A N/A 27.48 °C 83.25 % 1,002.17 mbar 3.97 m/s 285.84 Deg 2.75 µg/m3
2022-08-05 10:00 7.33 µg/m3 0.69 µg/m3 81.45 µg/m3 N/A N/A 27.28 °C 83.21 % 1,002.06 mbar 3.73 m/s 281.07 Deg 1.86 µg/m3
2022-08-05 09:00 3.8 µg/m3 1.14 µg/m3 91.08 µg/m3 N/A N/A 27.43 °C 74.56 % 1,001.97 mbar 3.42 m/s 245.16 Deg 0.68 µg/m3
2022-08-05 08:00 4.21 µg/m3 1.01 µg/m3 86.8 µg/m3 N/A N/A 27.12 °C 75.84 % 1,001.58 mbar 2.85 m/s 220.76 Deg 0.84 µg/m3
2022-08-05 07:00 4.81 µg/m3 0.74 µg/m3 77.88 µg/m3 N/A N/A 26.47 °C 83.9 % 1,001.25 mbar 2.29 m/s 281.29 Deg 0.68 µg/m3
2022-08-05 06:00 3.3 µg/m3 0.79 µg/m3 83.69 µg/m3 N/A N/A 25.84 °C 85.11 % 1,001.15 mbar 1.9 m/s 305.47 Deg 0.09 µg/m3
2022-08-05 05:00 2.32 µg/m3 0.94 µg/m3 93.52 µg/m3 N/A N/A 25.99 °C 84.24 % 1,001.01 mbar 1.78 m/s 321.56 Deg 0.06 µg/m3
2022-08-05 04:00 3.04 µg/m3 1.07 µg/m3 99.69 µg/m3 N/A N/A 26.19 °C 83.68 % 1,000.92 mbar 1.78 m/s 332.61 Deg 0.07 µg/m3
2022-08-05 03:00 4.35 µg/m3 0.89 µg/m3 98.88 µg/m3 N/A N/A 26.15 °C 83.69 % 1,001.20 mbar 2.14 m/s 339.78 Deg 0.07 µg/m3
2022-08-05 02:00 4.42 µg/m3 1.1 µg/m3 108.34 µg/m3 N/A N/A 26.23 °C 85.15 % 1,001.55 mbar 2.29 m/s 334.56 Deg 0.08 µg/m3
2022-08-05 01:00 2.64 µg/m3 1.09 µg/m3 134.18 µg/m3 N/A N/A 26.38 °C 83.82 % 1,001.82 mbar 1.94 m/s 353.99 Deg 0.07 µg/m3
2022-08-05 00:00 2.75 µg/m3 0.92 µg/m3 137.07 µg/m3 N/A N/A 26.44 °C 83.31 % 1,002.01 mbar 1.24 m/s 85.02 Deg 0.07 µg/m3
2022-08-04 23:00 1 µg/m3 1.01 µg/m3 141.07 µg/m3 N/A N/A 27.02 °C 73.94 % 1,002.16 mbar 1.02 m/s 129.25 Deg 0.05 µg/m3
2022-08-04 22:00 1.05 µg/m3 0.99 µg/m3 132.04 µg/m3 N/A N/A 27.02 °C 72.07 % 1,001.93 mbar 1.63 m/s 211.18 Deg 0.06 µg/m3
2022-08-04 21:00 1.96 µg/m3 0.96 µg/m3 134.35 µg/m3 N/A N/A 26.8 °C 79.25 % 1,001.82 mbar 2.61 m/s 233.71 Deg 0.07 µg/m3
2022-08-04 20:00 6.99 µg/m3 1.32 µg/m3 134.88 µg/m3 N/A N/A 27.09 °C 77.65 % 1,001.37 mbar 3.18 m/s 105.03 Deg 0.07 µg/m3
2022-08-04 19:00 1.37 µg/m3 1.57 µg/m3 156.01 µg/m3 N/A N/A 27.68 °C 76.78 % 1,001.31 mbar 3.94 m/s 83.6 Deg 0.07 µg/m3
2022-08-04 18:00 1.51 µg/m3 1.86 µg/m3 162.16 µg/m3 N/A N/A 28.2 °C 73.81 % 1,001.34 mbar 3.74 m/s 202.73 Deg 0.11 µg/m3
2022-08-04 17:00 0.85 µg/m3 1.68 µg/m3 151.57 µg/m3 N/A N/A 28.95 °C 70.52 % 1,001.29 mbar 3.02 m/s 214.49 Deg 0.11 µg/m3
2022-08-04 16:00 1.08 µg/m3 1.64 µg/m3 154.68 µg/m3 N/A N/A 29.15 °C 68.13 % 1,001.31 mbar 2.63 m/s 192.24 Deg 0.12 µg/m3
2022-08-04 15:00 1.63 µg/m3 1.63 µg/m3 154.46 µg/m3 N/A N/A 29.67 °C 66.81 % 1,001.49 mbar 2.63 m/s 165.45 Deg 0.16 µg/m3
2022-08-04 14:00 1.59 µg/m3 1.85 µg/m3 149.87 µg/m3 N/A N/A 29.19 °C 67.29 % 1,001.69 mbar 3.5 m/s 126.74 Deg 0.17 µg/m3
2022-08-04 13:00 1.68 µg/m3 2.03 µg/m3 145.35 µg/m3 N/A N/A 29.38 °C 63.67 % 1,002.06 mbar 3.21 m/s 130.89 Deg 0.16 µg/m3
2022-08-04 12:00 2.1 µg/m3 2.21 µg/m3 143.65 µg/m3 N/A N/A 29.64 °C 62.74 % 1,002.22 mbar 2.77 m/s 196.86 Deg 0.2 µg/m3
2022-08-04 11:00 1.72 µg/m3 1.75 µg/m3 137.22 µg/m3 N/A N/A 28.85 °C 69.61 % 1,002.19 mbar 4.03 m/s 234.5 Deg 0.19 µg/m3
2022-08-04 10:00 1.2 µg/m3 1.43 µg/m3 130.58 µg/m3 N/A N/A 28.34 °C 69.73 % 1,002.01 mbar 3.91 m/s 169.32 Deg 0.25 µg/m3
2022-08-04 09:00 7.6 µg/m3 1.8 µg/m3 115.19 µg/m3 N/A N/A 27.59 °C 75.77 % 1,001.65 mbar 3.36 m/s 266.36 Deg 1.09 µg/m3
2022-08-04 08:00 6.49 µg/m3 1.39 µg/m3 108.77 µg/m3 N/A N/A 26.93 °C 77.37 % 1,001.26 mbar 3.22 m/s 314.7 Deg 0.77 µg/m3
2022-08-04 07:00 3.56 µg/m3 0.81 µg/m3 100.81 µg/m3 N/A N/A 26.1 °C 82 % 1,000.82 mbar 2.58 m/s 95.81 Deg 0.26 µg/m3
2022-08-04 06:00 2.37 µg/m3 0.68 µg/m3 107.7 µg/m3 N/A N/A 25.51 °C 82.49 % 1,000.62 mbar 1.76 m/s 100.94 Deg 0.09 µg/m3
2022-08-04 05:00 2.15 µg/m3 0.95 µg/m3 113.32 µg/m3 N/A N/A 25.6 °C 77.04 % 1,000.46 mbar 1.18 m/s 196.37 Deg 0.06 µg/m3
2022-08-04 04:00 3.16 µg/m3 1.16 µg/m3 109.08 µg/m3 N/A N/A 25.7 °C 74.6 % 1,000.50 mbar 0.36 m/s 118.95 Deg 0.07 µg/m3
2022-08-04 03:00 4.94 µg/m3 1.28 µg/m3 105.77 µg/m3 N/A N/A 25.62 °C 80.45 % 1,000.69 mbar 0.52 m/s 157.11 Deg 0.08 µg/m3
2022-08-04 02:00 4.68 µg/m3 1.3 µg/m3 105.61 µg/m3 N/A N/A 25.75 °C 80.56 % 1,000.88 mbar 0.49 m/s 115.77 Deg 0.07 µg/m3
2022-08-04 01:00 9.81 µg/m3 2.2 µg/m3 87.55 µg/m3 N/A N/A 25.94 °C 79.79 % 1,001.01 mbar 1.39 m/s 108.38 Deg 0.08 µg/m3
2022-08-04 00:00 4.97 µg/m3 1.04 µg/m3 105.18 µg/m3 N/A N/A 26.07 °C 79.33 % 1,001.13 mbar 1.27 m/s 141.54 Deg 0.08 µg/m3
2022-08-03 23:00 3.31 µg/m3 0.72 µg/m3 104.13 µg/m3 N/A N/A 26.05 °C 78.19 % 1,001.04 mbar 1.8 m/s 57.91 Deg 0.07 µg/m3
2022-08-03 22:00 2.86 µg/m3 0.78 µg/m3 104.54 µg/m3 N/A N/A 26.35 °C 76.07 % 1,000.89 mbar 2.01 m/s 71.06 Deg 0.07 µg/m3

It is to be noted that the data is provisional and subject to quality assurance procedures. For validated data kindly refer your request to contact.air@era.org.mt